K5BWX-2 Weather Reports


time (UTC)temp
C
wind
direction
speed
KPH
gust
KPH
rain 1hr
cm
rain 24hr
cm
rain mn
cm
humidity
%
barometer
mb
20260504032550 11 193 8.0 19.3 0.00 0.00 0.00 60 1018.1
20260504032452 11 197 8.0 30.6 0.00 0.00 0.00 60 1018.1
20260504032350 11 294 8.0 30.6 0.00 0.00 0.00 60 1018.1
20260504032250 11 201 8.0 30.6 0.00 0.00 0.00 60 1018.1
20260504032152 11 212 8.0 30.6 0.00 0.00 0.00 60 1018.1
20260504032051 11 205 8.0 30.6 0.00 0.00 0.00 60 1018.2
20260504031951 11 208 9.7 30.6 0.00 0.00 0.00 60 1018.1
20260504031851 11 204 9.7 30.6 0.00 0.00 0.00 60 1018.1
20260504031751 11 202 9.7 32.2 0.00 0.00 0.00 60 1018.1
20260504031652 11 207 9.7 32.2 0.00 0.00 0.00 60 1018.1
20260504031550 11 143 9.7 32.2 0.00 0.00 0.00 60 1018.1
20260504031451 11 167 9.7 32.2 0.00 0.00 0.00 60 1018.0
20260504031352 11 217 8.0 32.2 0.00 0.00 0.00 60 1018.1
20260504031251 11 171 9.7 32.2 0.00 0.00 0.00 60 1018.1
20260504031152 11 179 8.0 32.2 0.00 0.00 0.00 59 1018.2
20260504031052 12 188 8.0 32.2 0.00 0.00 0.00 59 1018.1
20260504030947 12 192 8.0 32.2 0.00 0.00 0.00 59 1018.1
20260504030844 12 219 8.0 32.2 0.00 0.00 0.00 60 1018.1
20260504030820 12 192 8.0 25.7 0.00 0.00 0.00 59 1018.1
20260504030807 12 203 8.0 25.7 0.00 0.00 0.00 59 1018.1
20260504030546 12 197 8.0 25.7 0.00 0.00 0.00 58 1018.2
20260504030438 12 193 8.0 25.7 0.00 0.00 0.00 59 1018.1
20260504030338 12 193 8.0 25.7 0.00 0.00 0.00 58 1018.2
20260504030314 12 185 8.0 20.9 0.00 0.00 0.00 58 1018.0
20260504030308 12 196 8.0 20.9 0.00 0.00 0.00 58 1018.1
20260504030254 12 275 8.0 25.7 0.00 0.00 0.00 59 1018.2
20260504030235 12 172 8.0 20.9 0.00 0.00 0.00 58 1018.2
20260504025950 12 248 8.0 20.9 0.00 0.00 0.00 58 1018.0
20260504025940 12 196 8.0 20.9 0.00 0.00 0.00 58 1018.1
20260504025919 12 199 8.0 20.9 0.00 0.00 0.00 58 1018.1
20260504025538 12 188 8.0 20.9 0.00 0.00 0.00 58 1018.0
20260504025437 12 200 8.0 20.9 0.00 0.00 0.00 58 1018.0
20260504025337 12 216 8.0 19.3 0.00 0.00 0.00 58 1018.1
20260504025304 12 157 8.0 19.3 0.00 0.00 0.00 58 1018.0
20260504025253 12 207 8.0 19.3 0.00 0.00 0.00 58 1018.0
20260504025032 12 192 8.0 19.3 0.00 0.00 0.00 57 1018.0
20260504025016 12 203 8.0 19.3 0.00 0.00 0.00 57 1018.0
20260504024958 12 197 8.0 19.3 0.00 0.00 0.00 57 1018.0
20260504024831 12 198 8.0 19.3 0.00 0.00 0.00 57 1018.0
20260504024824 12 180 8.0 19.3 0.00 0.00 0.00 57 1018.0
20260504024805 12 192 8.0 19.3 0.00 0.00 0.00 58 1018.0
20260504024424 12 209 8.0 19.3 0.00 0.00 0.00 57 1018.0
20260504024324 12 223 8.0 19.3 0.00 0.00 0.00 57 1018.0
20260504024219 12 194 8.0 19.3 0.00 0.00 0.00 57 1018.0
20260504024119 12 206 8.0 19.3 0.00 0.00 0.00 57 1018.0
20260504024018 12 206 8.0 17.7 0.00 0.00 0.00 57 1018.0
20260504023918 12 183 8.0 20.9 0.00 0.00 0.00 57 1018.0
20260504023819 12 196 8.0 20.9 0.00 0.00 0.00 57 1018.0
20260504023718 12 169 8.0 20.9 0.00 0.00 0.00 57 1017.9
20260504023619 12 200 8.0 20.9 0.00 0.00 0.00 56 1017.9
20260504023518 12 184 8.0 20.9 0.00 0.00 0.00 57 1017.9
20260504023416 12 213 8.0 20.9 0.00 0.00 0.00 57 1018.0
20260504023317 12 171 8.0 20.9 0.00 0.00 0.00 57 1018.0
20260504023256 12 236 8.0 20.9 0.00 0.00 0.00 56 1017.9
20260504023243 12 218 8.0 20.9 0.00 0.00 0.00 57 1017.9
20260504023012 12 206 8.0 20.9 0.00 0.00 0.00 56 1017.8
20260504022947 12 163 6.4 20.9 0.00 0.00 0.00 57 1017.6
20260504022937 12 257 8.0 20.9 0.00 0.00 0.00 56 1017.9
20260504022913 12 184 8.0 20.9 0.00 0.00 0.00 56 1017.8
20260504022800 12 218 8.0 20.9 0.00 0.00 0.00 57 1017.7
20260504022754 12 222 8.0 20.9 0.00 0.00 0.00 57 1017.6
20260504022738 12 205 8.0 20.9 0.00 0.00 0.00 56 1017.7
20260504022716 12 183 8.0 20.9 0.00 0.00 0.00 56 1017.8
20260504022209 12 196 8.0 20.9 0.00 0.00 0.00 57 1017.6
20260504022124 12 170 8.0 19.3 0.00 0.00 0.00 57 1017.4
20260504022114 12 207 8.0 19.3 0.00 0.00 0.00 57 1017.5
20260504022053 12 206 8.0 19.3 0.00 0.00 0.00 57 1017.6
20260504021931 12 181 8.0 19.3 0.00 0.00 0.00 56 1017.5
20260504021708 12 198 8.0 19.3 0.00 0.00 0.00 56 1017.5
20260504021610 12 200 8.0 19.3 0.00 0.00 0.00 56 1017.5
20260504021509 12 213 8.0 19.3 0.00 0.00 0.00 56 1017.4
20260504021409 12 211 8.0 19.3 0.00 0.00 0.00 56 1017.4
20260504021309 12 211 8.0 19.3 0.00 0.00 0.00 56 1017.5
20260504021209 12 199 8.0 19.3 0.00 0.00 0.00 56 1017.4
20260504021108 12 164 8.0 19.3 0.00 0.00 0.00 56 1017.5
20260504021010 12 163 8.0 19.3 0.00 0.00 0.00 57 1017.5
20260504020910 12 213 8.0 19.3 0.00 0.00 0.00 57 1017.4
20260504020809 12 205 8.0 19.3 0.00 0.00 0.00 57 1017.4
20260504020709 12 205 8.0 19.3 0.00 0.00 0.00 56 1017.4
20260504020608 12 204 8.0 19.3 0.00 0.00 0.00 57 1017.4
20260504020541 12 186 8.0 17.7 0.00 0.00 0.00 57 1017.4
20260504020529 12 199 8.0 19.3 0.00 0.00 0.00 57 1017.4
20260504020309 12 213 8.0 17.7 0.00 0.00 0.00 57 1017.4
20260504020208 12 216 8.0 17.7 0.00 0.00 0.00 57 1017.4
20260504020111 12 162 8.0 17.7 0.00 0.00 0.00 57 1017.3
20260504020008 12 199 8.0 16.1 0.00 0.00 0.00 57 1017.3
20260504015910 12 182 8.0 16.1 0.00 0.00 0.00 57 1017.3
20260504015809 12 208 6.4 16.1 0.00 0.00 0.00 57 1017.3
20260504015730 12 184 8.0 16.1 0.00 0.00 0.00 57 1017.2
20260504015719 12 213 6.4 16.1 0.00 0.00 0.00 57 1017.3
20260504015500 12 208 8.0 16.1 0.00 0.00 0.00 57 1017.2
20260504015356 12 202 6.4 16.1 0.00 0.00 0.00 57 1017.3
20260504015258 12 202 8.0 16.1 0.00 0.00 0.00 57 1017.2
20260504015156 12 205 8.0 16.1 0.00 0.00 0.00 57 1017.2
20260504015057 12 209 8.0 16.1 0.00 0.00 0.00 57 1017.2
20260504015040 12 196 6.4 16.1 0.00 0.00 0.00 57 1017.2
20260504015035 12 275 8.0 19.3 0.00 0.00 0.00 57 1017.3
20260504015029 12 209 8.0 19.3 0.00 0.00 0.00 57 1017.3
20260504015019 12 203 6.4 16.1 0.00 0.00 0.00 57 1017.2
20260504014836 12 221 6.4 16.1 0.00 0.00 0.00 57 1017.3
20260504014456 12 177 6.4 19.3 0.00 0.00 0.00 57 1017.3
20260504014357 12 213 6.4 19.3 0.00 0.00 0.00 57 1017.3
20260504014329 12 213 6.4 19.3 0.00 0.00 0.00 58 1017.2
20260504014319 12 234 6.4 19.3 0.00 0.00 0.00 57 1017.2
20260504014056 12 190 6.4 19.3 0.00 0.00 0.00 57 1017.2
20260504014031 12 207 6.4 19.3 0.00 0.00 0.00 57 1017.2
20260504014020 12 205 6.4 19.3 0.00 0.00 0.00 57 1017.2
20260504013758 12 220 6.4 19.3 0.00 0.00 0.00 57 1017.3
20260504013657 12 199 6.4 14.5 0.00 0.00 0.00 57 1017.3
20260504013557 12 190 6.4 14.5 0.00 0.00 0.00 58 1017.2
20260504013456 12 208 6.4 17.7 0.00 0.00 0.00 58 1017.3
20260504013356 12 184 6.4 17.7 0.00 0.00 0.00 58 1017.2
20260504013329 12 181 6.4 17.7 0.00 0.00 0.00 58 1017.3
20260504013318 12 224 6.4 17.7 0.00 0.00 0.00 58 1017.2
20260504013055 12 181 6.4 17.7 0.00 0.00 0.00 57 1017.3
20260504012954 12 198 6.4 17.7 0.00 0.00 0.00 57 1017.3
20260504012856 12 202 6.4 17.7 0.00 0.00 0.00 57 1017.3
20260504012754 12 180 6.4 17.7 0.00 0.00 0.00 58 1017.3
20260504012654 12 215 6.4 17.7 0.00 0.00 0.00 57 1017.3
20260504012554 12 221 6.4 17.7 0.00 0.00 0.00 57 1017.3
20260504012454 12 209 6.4 16.1 0.00 0.00 0.00 57 1017.3
20260504012350 12 207 6.4 16.1 0.00 0.00 0.00 57 1017.3
20260504012251 12 239 6.4 16.1 0.00 0.00 0.00 57 1017.4
20260504012150 12 190 6.4 17.7 0.00 0.00 0.00 57 1017.3
20260504012124 12 182 6.4 17.7 0.00 0.00 0.00 57 1017.3
20260504012113 12 178 6.4 17.7 0.00 0.00 0.00 57 1017.3
20260504011851 12 227 6.4 17.7 0.00 0.00 0.00 57 1017.3
20260504011750 12 271 6.4 17.7 0.00 0.00 0.00 57 1017.3
20260504011651 12 184 6.4 17.7 0.00 0.00 0.00 57 1017.4
20260504011550 12 184 4.8 17.7 0.00 0.00 0.00 57 1017.3
20260504011450 12 210 4.8 17.7 0.00 0.00 0.00 57 1017.3
20260504011352 12 207 4.8 17.7 0.00 0.00 0.00 58 1017.4
20260504011328 12 210 4.8 14.5 0.00 0.00 0.00 58 1017.4
20260504011317 12 206 4.8 17.7 0.00 0.00 0.00 57 1017.4
20260504011052 12 275 4.8 14.5 0.00 0.00 0.00 57 1017.4
20260504010952 12 221 4.8 14.5 0.00 0.00 0.00 57 1017.3
20260504010852 12 210 4.8 14.5 0.00 0.00 0.00 56 1017.4
20260504010752 12 171 4.8 20.9 0.00 0.00 0.00 56 1017.2
20260504010717 12 218 4.8 20.9 0.00 0.00 0.00 56 1017.3
20260504010706 12 172 4.8 20.9 0.00 0.00 0.00 56 1017.3
20260504010444 12 194 4.8 20.9 0.00 0.00 0.00 56 1017.4
20260504010344 12 225 4.8 20.9 0.00 0.00 0.00 56 1017.4
20260504010244 12 229 4.8 20.9 0.00 0.00 0.00 56 1017.4
20260504010138 12 186 4.8 20.9 0.00 0.00 0.00 56 1017.3
20260504010109 12 171 4.8 20.9 0.00 0.00 0.00 56 1017.4
20260504010100 12 169 4.8 20.9 0.00 0.00 0.00 56 1017.4
20260504005838 12 199 4.8 12.9 0.00 0.00 0.00 56 1017.4
20260504005738 12 199 4.8 12.9 0.00 0.00 0.00 56 1017.4
20260504005636 12 193 4.8 12.9 0.00 0.00 0.00 56 1017.5
20260504005536 12 209 4.8 12.9 0.00 0.00 0.00 56 1017.4
20260504005435 12 209 4.8 12.9 0.00 0.00 0.00 56 1017.5
20260504005336 12 202 4.8 12.9 0.00 0.00 0.00 55 1017.5
20260504005235 12 242 4.8 12.9 0.00 0.00 0.00 57 1017.5
20260504005133 12 164 4.8 12.9 0.00 0.00 0.00 56 1017.5
20260504005032 12 171 4.8 12.9 0.00 0.00 0.00 57 1017.4
20260504004931 12 215 3.2 12.9 0.00 0.00 0.00 56 1017.4
20260504004832 12 181 3.2 9.7 0.00 0.00 0.00 58 1017.4
20260504004732 12 155 3.2 9.7 0.00 0.00 0.00 57 1017.5
20260504004631 12 290 3.2 12.9 0.00 0.00 0.00 56 1017.5
20260504004528 11 217 3.2 12.9 0.00 0.00 0.00 57 1017.5
20260504004430 11 192 3.2 12.9 0.00 0.00 0.00 57 1017.5
20260504004326 12 214 3.2 12.9 0.00 0.00 0.00 57 1017.5
20260504004226 12 194 3.2 12.9 0.00 0.00 0.00 59 1017.6
20260504004127 12 184 3.2 12.9 0.00 0.00 0.00 58 1017.6
20260504004058 12 195 3.2 12.9 0.00 0.00 0.00 56 1017.5
20260504004049 12 195 3.2 12.9 0.00 0.00 0.00 58 1017.6
20260504003820 12 195 3.2 12.9 0.00 0.00 0.00 57 1017.6
20260504003719 12 195 3.2 14.5 0.00 0.00 0.00 56 1017.6
20260504003622 12 175 3.2 14.5 0.00 0.00 0.00 57 1017.5
20260504003521 12 176 3.2 14.5 0.00 0.00 0.00 57 1017.5
20260504003417 12 162 3.2 14.5 0.00 0.00 0.00 57 1017.6
20260504003352 12 219 3.2 14.5 0.00 0.00 0.00 56 1017.5
20260504003341 12 219 3.2 14.5 0.00 0.00 0.00 57 1017.6
20260504003113 12 199 3.2 14.5 0.00 0.00 0.00 54 1017.5
20260504003015 12 193 3.2 14.5 0.00 0.00 0.00 54 1017.5
20260504002915 12 193 3.2 14.5 0.00 0.00 0.00 54 1017.6
20260504002814 12 175 4.8 14.5 0.00 0.00 0.00 54 1017.6
20260504002712 12 217 3.2 9.7 0.00 0.00 0.00 54 1017.6
20260504002612 12 195 4.8 9.7 0.00 0.00 0.00 55 1017.6
20260504002509 12 232 4.8 9.7 0.00 0.00 0.00 55 1017.6
20260504002432 12 227 4.8 9.7 0.00 0.00 0.00 57 1017.7
20260504002418 12 198 4.8 9.7 0.00 0.00 0.00 55 1017.6
20260504002154 12 193 4.8 9.7 0.00 0.00 0.00 57 1017.7
20260504002056 12 271 4.8 9.7 0.00 0.00 0.00 56 1017.7
20260504001955 12 204 4.8 9.7 0.00 0.00 0.00 53 1017.8
20260504001848 12 234 4.8 9.7 0.00 0.00 0.00 53 1017.9
20260504001749 13 196 4.8 9.7 0.00 0.00 0.00 52 1017.8
20260504001651 13 195 4.8 11.3 0.00 0.00 0.00 51 1017.8
20260504001548 13 202 4.8 11.3 0.00 0.00 0.00 50 1017.8
20260504001503 13 211 4.8 12.9 0.00 0.00 0.00 50 1018.0
20260504001452 13 217 4.8 11.3 0.00 0.00 0.00 50 1017.8
20260504001432 13 234 4.8 11.3 0.00 0.00 0.00 50 1017.9
20260504001310 13 206 4.8 11.3 0.00 0.00 0.00 50 1018.0
20260504001044 13 201 4.8 12.9 0.00 0.00 0.00 50 1017.9
20260504000942 13 200 4.8 12.9 0.00 0.00 0.00 49 1017.9
20260504000905 13 227 3.2 12.9 0.00 0.00 0.00 50 1017.9
20260504000852 13 204 3.2 12.9 0.00 0.00 0.00 49 1017.9
20260504000634 13 227 4.8 14.5 0.00 0.00 0.00 50 1017.9
20260504000534 13 183 4.8 14.5 0.00 0.00 0.00 50 1017.9
20260504000432 13 183 3.2 14.5 0.00 0.00 0.00 49 1017.9
20260504000325 13 232 4.8 14.5 0.00 0.00 0.00 49 1017.9
20260504000227 13 202 3.2 14.5 0.00 0.00 0.00 49 1017.9
20260504000125 13 227 3.2 14.5 0.00 0.00 0.00 49 1017.9
20260504000026 13 289 3.2 14.5 0.00 0.00 0.00 50 1017.9
20260503235927 13 204 3.2 14.5 0.00 0.00 0.00 50 1018.0
20260503235822 13 270 3.2 14.5 0.00 0.00 0.00 49 1017.9
20260503235724 13 218 3.2 14.5 0.00 0.00 0.00 50 1018.0
20260503235622 13 229 3.2 11.3 0.00 0.00 0.00 50 1018.0
20260503235524 13 254 3.2 11.3 0.00 0.00 0.00 50 1018.0
20260503235421 13 258 3.2 11.3 0.00 0.00 0.00 49 1018.0
20260503235342 13 208 4.8 11.3 0.00 0.00 0.00 49 1017.9
20260503235328 13 214 3.2 11.3 0.00 0.00 0.00 49 1017.9
20260503235107 13 171 4.8 14.5 0.00 0.00 0.00 49 1017.9
20260503235005 13 197 4.8 14.5 0.00 0.00 0.00 50 1017.9
20260503234904 13 221 4.8 14.5 0.00 0.00 0.00 49 1018.0
20260503234801 13 226 3.2 14.5 0.00 0.00 0.00 50 1017.9
20260503234703 13 215 3.2 14.5 0.00 0.00 0.00 49 1017.9
20260503234639 13 211 3.2 14.5 0.00 0.00 0.00 50 1017.9
20260503234635 13 207 4.8 14.5 0.00 0.00 0.00 49 1018.0
20260503234624 13 205 3.2 14.5 0.00 0.00 0.00 50 1017.9
20260503234442 13 221 4.8 14.5 0.00 0.00 0.00 49 1018.0
20260503234318 13 188 3.2 14.5 0.00 0.00 0.00 50 1018.0
20260503234054 13 172 3.2 14.5 0.00 0.00 0.00 51 1017.9
20260503233953 13 196 3.2 14.5 0.00 0.00 0.00 51 1017.9
20260503233853 13 221 4.8 14.5 0.00 0.00 0.00 50 1017.9
20260503233750 13 220 4.8 14.5 0.00 0.00 0.00 50 1017.9
20260503233649 13 207 4.8 14.5 0.00 0.00 0.00 50 1017.9
20260503233548 13 223 4.8 14.5 0.00 0.00 0.00 51 1017.9
20260503233449 13 276 3.2 12.9 0.00 0.00 0.00 50 1017.9
20260503233349 13 202 4.8 12.9 0.00 0.00 0.00 50 1017.9
20260503233306 14 196 4.8 12.9 0.00 0.00 0.00 48 1017.9
20260503233300 14 207 4.8 12.9 0.00 0.00 0.00 48 1017.9
20260503233250 13 202 4.8 12.9 0.00 0.00 0.00 50 1017.8
20260503233229 14 215 4.8 12.9 0.00 0.00 0.00 50 1017.8
20260503232846 14 205 4.8 14.5 0.00 0.00 0.00 49 1017.9
20260503232746 14 201 4.8 14.5 0.00 0.00 0.00 50 1017.9
20260503232646 14 200 4.8 16.1 0.00 0.00 0.00 49 1017.9
20260503232546 14 234 4.8 16.1 0.00 0.00 0.00 48 1017.9
20260503232446 14 210 4.8 16.1 0.00 0.00 0.00 48 1017.9
20260503232343 14 208 4.8 16.1 0.00 0.00 0.00 47 1017.9
20260503232244 14 198 4.8 16.1 0.00 0.00 0.00 48 1017.9
20260503232140 14 215 4.8 16.1 0.00 0.00 0.00 48 1017.9
20260503232036 14 250 4.8 16.1 0.00 0.00 0.00 49 1017.8
20260503231937 14 291 6.4 16.1 0.00 0.00 0.00 48 1017.9
20260503231835 14 196 6.4 16.1 0.00 0.00 0.00 48 1017.9
20260503231735 15 183 6.4 16.1 0.00 0.00 0.00 49 1017.9
20260503231636 15 240 4.8 17.7 0.00 0.00 0.00 49 1017.9
20260503231532 15 189 6.4 17.7 0.00 0.00 0.00 48 1017.9
20260503231433 15 271 4.8 17.7 0.00 0.00 0.00 49 1017.9
20260503231331 15 196 4.8 17.7 0.00 0.00 0.00 51 1017.9
20260503231231 15 187 4.8 17.7 0.00 0.00 0.00 50 1017.9
20260503231206 15 198 4.8 17.7 0.00 0.00 0.00 49 1018.0
20260503231154 15 243 4.8 17.7 0.00 0.00 0.00 49 1017.9
20260503230930 15 202 3.2 17.7 0.00 0.00 0.00 49 1017.9
20260503230830 15 199 4.8 17.7 0.00 0.00 0.00 50 1018.0
20260503230728 15 236 4.8 14.5 0.00 0.00 0.00 51 1018.0
20260503230706 15 207 4.8 14.5 0.00 0.00 0.00 51 1018.1
20260503230652 15 183 4.8 14.5 0.00 0.00 0.00 51 1018.1
20260503230428 15 169 4.8 16.1 0.00 0.00 0.00 50 1018.1
20260503230328 15 167 4.8 16.1 0.00 0.00 0.00 50 1018.1
20260503230257 15 207 4.8 16.1 0.00 0.00 0.00 50 1018.2
20260503230248 15 207 4.8 16.1 0.00 0.00 0.00 50 1018.1
20260503230028 15 207 4.8 16.1 0.00 0.00 0.00 49 1018.2
20260503225954 15 254 4.8 16.1 0.00 0.00 0.00 49 1018.2
20260503225944 15 241 4.8 16.1 0.00 0.00 0.00 50 1018.2
20260503225722 15 326 4.8 16.1 0.00 0.00 0.00 48 1018.2
20260503225624 15 269 4.8 16.1 0.00 0.00 0.00 48 1018.4
20260503225522 15 234 3.2 16.1 0.00 0.00 0.00 49 1018.4
20260503225423 15 221 4.8 11.3 0.00 0.00 0.00 49 1018.5
20260503225322 15 209 4.8 11.3 0.00 0.00 0.00 49 1018.5
20260503225221 15 213 4.8 11.3 0.00 0.00 0.00 48 1018.6
20260503225119 15 224 4.8 11.3 0.00 0.00 0.00 52 1018.5
20260503225017 15 193 4.8 11.3 0.00 0.00 0.00 50 1018.5
20260503224918 15 5 4.8 11.3 0.00 0.00 0.00 49 1018.6
20260503224816 15 15 4.8 12.9 0.00 0.00 0.00 48 1018.6
20260503224726 15 15 4.8 12.9 0.00 0.00 0.00 46 1018.5
20260503224615 15 173 4.8 14.5 0.00 0.00 0.00 47 1018.6
20260503224514 15 247 4.8 14.5 0.00 0.00 0.00 46 1018.6
20260503224415 15 210 4.8 14.5 0.00 0.00 0.00 46 1018.6
20260503224315 15 195 4.8 14.5 0.00 0.00 0.00 46 1018.6
20260503224213 15 219 6.4 14.5 0.00 0.00 0.00 45 1018.6
20260503224113 15 204 4.8 14.5 0.00 0.00 0.00 46 1018.6
20260503224029 15 217 4.8 14.5 0.00 0.00 0.00 46 1018.7
20260503224023 15 211 4.8 14.5 0.00 0.00 0.00 45 1018.7
20260503224013 15 215 4.8 14.5 0.00 0.00 0.00 47 1018.6
20260503223951 15 208 4.8 14.5 0.00 0.00 0.00 46 1018.7
20260503223613 15 200 4.8 14.5 0.00 0.00 0.00 46 1018.8
20260503223512 15 196 4.8 14.5 0.00 0.00 0.00 46 1018.7
20260503223409 15 244 4.8 14.5 0.00 0.00 0.00 46 1018.7
20260503223310 15 217 3.2 14.5 0.00 0.00 0.00 48 1018.8
20260503223211 15 209 3.2 14.5 0.00 0.00 0.00 47 1018.8
20260503223107 15 292 3.2 14.5 0.00 0.00 0.00 48 1018.7
20260503223045 15 269 4.8 16.1 0.00 0.00 0.00 48 1018.7
20260503223033 15 212 4.8 14.5 0.00 0.00 0.00 48 1018.8
20260503222809 15 267 4.8 16.1 0.00 0.00 0.00 48 1018.7
20260503222708 15 224 4.8 16.1 0.00 0.00 0.00 48 1018.7
20260503222607 15 224 4.8 16.1 0.00 0.00 0.00 47 1018.8
20260503222507 15 200 6.4 17.7 0.00 0.00 0.00 48 1018.8
20260503222407 15 167 6.4 17.7 0.00 0.00 0.00 47 1018.7
20260503222308 15 167 6.4 17.7 0.00 0.00 0.00 45 1018.7
20260503222204 15 209 6.4 17.7 0.00 0.00 0.00 46 1018.8
20260503222108 15 208 6.4 17.7 0.00 0.00 0.00 46 1018.8
20260503222100 15 277 6.4 17.7 0.00 0.00 0.00 45 1018.8
20260503222055 15 215 6.4 17.7 0.00 0.00 0.00 45 1018.7
20260503222037 15 238 6.4 17.7 0.00 0.00 0.00 47 1018.8
20260503221657 15 200 6.4 17.7 0.00 0.00 0.00 44 1018.8
20260503221556 15 215 6.4 22.5 0.00 0.00 0.00 45 1018.8
20260503221457 15 188 6.4 22.5 0.00 0.00 0.00 44 1018.7
20260503221405 15 211 6.4 22.5 0.00 0.00 0.00 46 1018.7
20260503221354 15 205 6.4 22.5 0.00 0.00 0.00 44 1018.8
20260503221332 15 211 6.4 22.5 0.00 0.00 0.00 48 1018.7
20260503221211 15 213 6.4 22.5 0.00 0.00 0.00 46 1018.8
20260503220951 15 270 6.4 22.5 0.00 0.00 0.00 45 1018.8
20260503220925 15 219 6.4 22.5 0.00 0.00 0.00 45 1018.8
20260503220912 15 189 6.4 22.5 0.00 0.00 0.00 45 1018.8
20260503220649 16 195 6.4 22.5 0.00 0.00 0.00 47 1018.7
20260503220547 16 221 6.4 22.5 0.00 0.00 0.00 47 1018.8
20260503220448 16 192 6.4 22.5 0.00 0.00 0.00 48 1018.8
20260503220359 16 226 6.4 17.7 0.00 0.00 0.00 44 1018.9
20260503220348 16 193 6.4 17.7 0.00 0.00 0.00 46 1018.7
20260503220328 16 259 6.4 17.7 0.00 0.00 0.00 46 1018.8
20260503220206 16 193 6.4 17.7 0.00 0.00 0.00 44 1018.8
20260503215948 16 211 6.4 17.7 0.00 0.00 0.00 44 1018.9
20260503215848 16 240 4.8 17.7 0.00 0.00 0.00 43 1018.9
20260503215748 16 262 4.8 17.7 0.00 0.00 0.00 43 1018.9
20260503215642 16 259 4.8 17.7 0.00 0.00 0.00 43 1018.9
20260503215543 16 243 4.8 17.7 0.00 0.00 0.00 45 1018.9
20260503215517 16 208 4.8 14.5 0.00 0.00 0.00 45 1018.9
20260503215505 16 221 4.8 14.5 0.00 0.00 0.00 46 1019.0
20260503215244 16 209 4.8 14.5 0.00 0.00 0.00 44 1018.9
20260503215232 16 205 4.8 12.9 0.00 0.00 0.00 45 1019.0
20260503215207 16 210 4.8 14.5 0.00 0.00 0.00 45 1018.9
20260503215045 16 286 4.8 12.9 0.00 0.00 0.00 45 1019.1
20260503215034 16 235 4.8 14.5 0.00 0.00 0.00 48 1019.0
20260503215011 16 187 4.8 12.9 0.00 0.00 0.00 46 1019.0
20260503214629 16 274 4.8 12.9 0.00 0.00 0.00 47 1019.1
20260503214526 16 196 4.8 12.9 0.00 0.00 0.00 43 1019.1
20260503214425 16 195 6.4 12.9 0.00 0.00 0.00 42 1019.1
20260503214325 16 265 6.4 17.7 0.00 0.00 0.00 44 1019.2
20260503214223 16 206 4.8 17.7 0.00 0.00 0.00 46 1019.2
20260503214119 16 66 4.8 17.7 0.00 0.00 0.00 44 1019.2
20260503214043 16 252 6.4 17.7 0.00 0.00 0.00 45 1019.3
20260503214029 16 282 6.4 17.7 0.00 0.00 0.00 44 1019.2
20260503214004 16 274 6.4 17.7 0.00 0.00 0.00 42 1019.3
20260503213839 16 235 4.8 17.7 0.00 0.00 0.00 44 1019.2
20260503213609 16 225 6.4 17.7 0.00 0.00 0.00 44 1019.3
20260503213538 16 179 4.8 17.7 0.00 0.00 0.00 46 1019.3
20260503213529 16 273 4.8 17.7 0.00 0.00 0.00 44 1019.3
20260503213305 16 194 4.8 14.5 0.00 0.00 0.00 46 1019.3
20260503213206 16 207 4.8 14.5 0.00 0.00 0.00 42 1019.3
20260503213101 16 265 4.8 14.5 0.00 0.00 0.00 44 1019.3
20260503212959 16 205 4.8 12.9 0.00 0.00 0.00 45 1019.2
20260503212932 16 227 3.2 12.9 0.00 0.00 0.00 44 1019.3
20260503212922 16 211 3.2 12.9 0.00 0.00 0.00 44 1019.3
20260503212700 16 188 3.2 8.0 0.00 0.00 0.00 43 1019.3
20260503212557 16 170 3.2 12.9 0.00 0.00 0.00 41 1019.3
20260503212456 16 169 3.2 12.9 0.00 0.00 0.00 43 1019.3
20260503212356 16 165 3.2 12.9 0.00 0.00 0.00 45 1019.3
20260503212254 16 187 3.2 12.9 0.00 0.00 0.00 42 1019.3
20260503212154 16 200 3.2 12.9 0.00 0.00 0.00 45 1019.2
20260503212048 16 201 3.2 12.9 0.00 0.00 0.00 42 1019.2
20260503212018 16 263 6.4 19.3 0.00 0.00 0.00 43 1019.4
20260503212013 16 178 4.8 12.9 0.00 0.00 0.00 43 1019.3
20260503212009 16 350 4.8 12.9 0.00 0.00 0.00 43 1019.3
20260503211956 16 348 3.2 12.9 0.00 0.00 0.00 42 1019.3
20260503211939 16 19 3.2 12.9 0.00 0.00 0.00 45 1019.3
20260503211641 16 240 4.8 12.9 0.00 0.00 0.00 45 1019.3
20260503211529 16 239 4.8 14.5 0.00 0.00 0.00 44 1019.3
20260503211523 16 194 4.8 14.5 0.00 0.00 0.00 45 1019.3
20260503211512 16 239 4.8 12.9 0.00 0.00 0.00 45 1019.3
20260503211333 16 231 4.8 14.5 0.00 0.00 0.00 46 1019.3
20260503211052 16 194 6.4 19.3 0.00 0.00 0.00 44 1019.4
20260503211041 16 240 6.4 14.5 0.00 0.00 0.00 42 1019.3
20260503211022 16 240 6.4 19.3 0.00 0.00 0.00 42 1019.4
20260503210641 16 192 6.4 19.3 0.00 0.00 0.00 46 1019.4
20260503210543 16 194 6.4 19.3 0.00 0.00 0.00 47 1019.4
20260503210443 16 218 6.4 19.3 0.00 0.00 0.00 43 1019.3
20260503210338 16 183 6.4 19.3 0.00 0.00 0.00 42 1019.4
20260503210313 16 227 6.4 19.3 0.00 0.00 0.00 42 1019.4
20260503210300 16 250 8.0 19.3 0.00 0.00 0.00 41 1019.4
20260503210037 16 198 6.4 19.3 0.00 0.00 0.00 47 1019.4
20260503205937 16 152 6.4 17.7 0.00 0.00 0.00 45 1019.4
20260503205851 16 183 6.4 19.3 0.00 0.00 0.00 41 1019.4
20260503205839 16 240 6.4 17.7 0.00 0.00 0.00 43 1019.4
20260503205832 16 200 6.4 19.3 0.00 0.00 0.00 42 1019.4
20260503205812 16 216 6.4 19.3 0.00 0.00 0.00 44 1019.4
20260503205432 16 209 6.4 19.3 0.00 0.00 0.00 43 1019.5
20260503205334 16 236 6.4 19.3 0.00 0.00 0.00 44 1019.4
20260503205232 16 207 6.4 19.3 0.00 0.00 0.00 43 1019.4
20260503205131 16 192 6.4 19.3 0.00 0.00 0.00 44 1019.4
20260503205032 16 220 6.4 19.3 0.00 0.00 0.00 45 1019.4
20260503204932 16 219 8.0 19.3 0.00 0.00 0.00 43 1019.4
20260503204833 16 227 8.0 24.1 0.00 0.00 0.00 44 1019.5
20260503204733 16 209 8.0 24.1 0.00 0.00 0.00 43 1019.5
20260503204629 16 204 8.0 24.1 0.00 0.00 0.00 42 1019.5
20260503204528 16 298 8.0 24.1 0.00 0.00 0.00 41 1019.6
20260503204427 16 204 6.4 24.1 0.00 0.00 0.00 43 1019.5
20260503204326 16 222 6.4 24.1 0.00 0.00 0.00 45 1019.5
20260503204226 16 225 6.4 24.1 0.00 0.00 0.00 45 1019.5
20260503204125 16 184 6.4 24.1 0.00 0.00 0.00 42 1019.5
20260503204023 16 172 6.4 24.1 0.00 0.00 0.00 44 1019.6
20260503203921 16 225 6.4 24.1 0.00 0.00 0.00 43 1019.6
20260503203858 16 182 6.4 17.7 0.00 0.00 0.00 46 1019.7
20260503203847 16 242 4.8 17.7 0.00 0.00 0.00 43 1019.6
20260503203650 16 222 6.4 16.1 0.00 0.00 0.00 47 1019.6
20260503203637 16 208 6.4 17.7 0.00 0.00 0.00 43 1019.6
20260503203419 16 275 8.0 24.1 0.00 0.00 0.00 43 1019.7
20260503203410 16 211 6.4 16.1 0.00 0.00 0.00 45 1019.6
20260503203403 16 290 8.0 24.1 0.00 0.00 0.00 42 1019.7
20260503203346 16 259 6.4 24.1 0.00 0.00 0.00 43 1019.7
20260503203004 16 240 8.0 24.1 0.00 0.00 0.00 42 1019.8
20260503202905 16 194 8.0 24.1 0.00 0.00 0.00 41 1019.9
20260503202806 16 198 8.0 24.1 0.00 0.00 0.00 41 1019.8
20260503202706 16 236 8.0 24.1 0.00 0.00 0.00 41 1019.8
20260503202559 16 192 6.4 24.1 0.00 0.00 0.00 41 1019.9
20260503202521 16 184 6.4 19.3 0.00 0.00 0.00 44 1020.2
20260503202516 16 246 4.8 17.7 0.00 0.00 0.00 43 1020.2
20260503202511 16 323 6.4 17.7 0.00 0.00 0.00 42 1020.1
20260503202501 16 164 6.4 24.1 0.00 0.00 0.00 44 1019.9
20260503202443 16 244 6.4 24.1 0.00 0.00 0.00 46 1020.1
20260503202421 16 277 6.4 22.5 0.00 0.00 0.00 45 1020.1
20260503202011 16 217 6.4 17.7 0.00 0.00 0.00 43 1020.2
20260503201750 16 232 6.4 19.3 0.00 0.00 0.00 40 1020.2
20260503201649 16 183 6.4 19.3 0.00 0.00 0.00 45 1020.2
20260503201544 16 198 6.4 19.3 0.00 0.00 0.00 44 1020.2
20260503201443 16 227 8.0 19.3 0.00 0.00 0.00 41 1020.2
20260503201346 16 302 8.0 19.3 0.00 0.00 0.00 40 1020.2
20260503201244 16 238 8.0 22.5 0.00 0.00 0.00 45 1020.4
20260503201143 16 215 8.0 22.5 0.00 0.00 0.00 44 1020.4
20260503201039 16 196 8.0 22.5 0.00 0.00 0.00 41 1020.4
20260503200939 16 223 8.0 22.5 0.00 0.00 0.00 42 1020.4
20260503200837 16 245 8.0 22.5 0.00 0.00 0.00 40 1020.3
20260503200737 16 248 8.0 22.5 0.00 0.00 0.00 39 1020.4
20260503200638 16 200 8.0 22.5 0.00 0.00 0.00 43 1020.4
20260503200532 16 207 8.0 22.5 0.00 0.00 0.00 43 1020.3
20260503200429 16 225 6.4 22.5 0.00 0.00 0.00 43 1020.2
20260503200330 16 206 8.0 22.5 0.00 0.00 0.00 40 1020.4
20260503200232 16 255 6.4 20.9 0.00 0.00 0.00 44 1020.4
20260503200130 16 214 6.4 19.3 0.00 0.00 0.00 41 1020.3
20260503200032 16 339 6.4 19.3 0.00 0.00 0.00 43 1020.4
20260503195933 16 194 8.0 17.7 0.00 0.00 0.00 44 1020.4
20260503195832 16 178 6.4 22.5 0.00 0.00 0.00 42 1020.4
20260503195731 16 235 8.0 22.5 0.00 0.00 0.00 39 1020.3
20260503195632 16 215 8.0 22.5 0.00 0.00 0.00 38 1020.4
20260503195531 16 202 6.4 22.5 0.00 0.00 0.00 39 1020.4
20260503195432 16 224 6.4 22.5 0.00 0.00 0.00 40 1020.4
20260503195354 16 210 6.4 22.5 0.00 0.00 0.00 40 1020.5
20260503195342 16 204 6.4 22.5 0.00 0.00 0.00 42 1020.5
20260503195318 16 247 6.4 22.5 0.00 0.00 0.00 41 1020.5
20260503195147 16 259 6.4 22.5 0.00 0.00 0.00 41 1020.5
20260503194931 16 193 6.4 22.5 0.00 0.00 0.00 43 1020.5
20260503194858 16 292 4.8 16.1 0.00 0.00 0.00 42 1020.6
20260503194848 16 153 4.8 16.1 0.00 0.00 0.00 42 1020.6
20260503194629 16 227 4.8 16.1 0.00 0.00 0.00 44 1020.5
20260503194528 16 186 4.8 16.1 0.00 0.00 0.00 44 1020.5
20260503194424 16 211 4.8 17.7 0.00 0.00 0.00 43 1020.5
20260503194355 16 166 6.4 17.7 0.00 0.00 0.00 46 1020.5
20260503194344 16 158 6.4 17.7 0.00 0.00 0.00 41 1020.5
20260503194123 16 165 6.4 19.3 0.00 0.00 0.00 45 1020.6
20260503194056 15 178 6.4 20.9 0.00 0.00 0.00 46 1020.5
20260503194045 15 214 6.4 19.3 0.00 0.00 0.00 44 1020.5
20260503193825 15 158 8.0 20.9 0.00 0.00 0.00 43 1020.5
20260503193723 15 153 8.0 20.9 0.00 0.00 0.00 44 1020.6
20260503193622 15 238 8.0 20.9 0.00 0.00 0.00 42 1020.6
20260503193520 15 210 8.0 20.9 0.00 0.00 0.00 45 1020.6
20260503193419 15 208 8.0 20.9 0.00 0.00 0.00 45 1020.7
20260503193319 15 178 8.0 20.9 0.00 0.00 0.00 44 1020.7
20260503193253 15 188 6.4 20.9 0.00 0.00 0.00 44 1020.7
20260503193241 15 229 6.4 20.9 0.00 0.00 0.00 44 1020.7
20260503193020 15 252 6.4 20.9 0.00 0.00 0.00 45 1020.7
20260503192956 15 212 4.8 16.1 0.00 0.00 0.00 43 1020.7
20260503192943 15 202 4.8 16.1 0.00 0.00 0.00 44 1020.7
20260503192719 15 208 4.8 16.1 0.00 0.00 0.00 44 1020.7
20260503192619 15 235 4.8 16.1 0.00 0.00 0.00 47 1020.8
20260503192521 15 183 6.4 17.7 0.00 0.00 0.00 45 1020.8
20260503192417 15 217 6.4 17.7 0.00 0.00 0.00 45 1020.8
20260503192316 15 225 6.4 17.7 0.00 0.00 0.00 45 1020.8
20260503192230 15 234 6.4 17.7 0.00 0.00 0.00 44 1020.9
20260503192224 15 235 6.4 17.7 0.00 0.00 0.00 42 1020.8
20260503192218 15 225 6.4 17.7 0.00 0.00 0.00 45 1020.8
20260503192155 15 211 6.4 17.7 0.00 0.00 0.00 43 1020.8
20260503191817 15 227 6.4 17.7 0.00 0.00 0.00 43 1021.0
20260503191716 15 218 4.8 17.7 0.00 0.00 0.00 45 1021.0
20260503191647 15 188 4.8 16.1 0.00 0.00 0.00 48 1020.9
20260503191636 15 219 4.8 17.7 0.00 0.00 0.00 45 1020.9
20260503191413 15 161 4.8 14.5 0.00 0.00 0.00 47 1020.9
20260503191349 15 209 4.8 14.5 0.00 0.00 0.00 46 1021.0
20260503191337 15 152 4.8 14.5 0.00 0.00 0.00 47 1020.9
20260503191114 15 215 4.8 19.3 0.00 0.00 0.00 45 1021.0
20260503191014 15 209 6.4 20.9 0.00 0.00 0.00 45 1021.0
20260503190915 15 202 6.4 20.9 0.00 0.00 0.00 44 1021.1
20260503190816 15 203 6.4 20.9 0.00 0.00 0.00 45 1021.2
20260503190715 15 205 4.8 20.9 0.00 0.00 0.00 43 1021.1
20260503190613 15 246 4.8 20.9 0.00 0.00 0.00 46 1021.2
20260503190513 15 229 4.8 20.9 0.00 0.00 0.00 46 1021.2
20260503190413 15 215 6.4 20.9 0.00 0.00 0.00 44 1021.2
20260503190346 15 248 4.8 20.9 0.00 0.00 0.00 43 1021.1
20260503190335 15 217 6.4 20.9 0.00 0.00 0.00 43 1021.2
20260503190113 15 200 4.8 20.9 0.00 0.00 0.00 45 1021.1
20260503190013 15 198 4.8 17.7 0.00 0.00 0.00 44 1021.1
20260503185914 15 208 4.8 17.7 0.00 0.00 0.00 46 1021.2
20260503185813 15 163 6.4 17.7 0.00 0.00 0.00 45 1021.2
20260503185749 15 260 6.4 25.7 0.00 0.00 0.00 45 1021.2
20260503185738 15 196 6.4 25.7 0.00 0.00 0.00 43 1021.3
20260503185514 15 5 6.4 25.7 0.00 0.00 0.00 42 1021.3
20260503185413 15 211 6.4 25.7 0.00 0.00 0.00 44 1021.3
20260503185314 15 250 6.4 25.7 0.00 0.00 0.00 42 1021.2
20260503185215 15 313 6.4 25.7 0.00 0.00 0.00 44 1021.3
20260503185111 15 192 6.4 25.7 0.00 0.00 0.00 45 1021.3
20260503185010 15 249 6.4 25.7 0.00 0.00 0.00 43 1021.3
20260503184946 15 281 4.8 25.7 0.00 0.00 0.00 42 1021.3
20260503184935 15 225 6.4 25.7 0.00 0.00 0.00 43 1021.2
20260503184709 15 208 4.8 14.5 0.00 0.00 0.00 45 1021.3
20260503184641 15 286 3.2 11.3 0.00 0.00 0.00 46 1021.3
20260503184631 15 196 4.8 12.9 0.00 0.00 0.00 46 1021.3
20260503184405 15 227 3.2 9.7 0.00 0.00 0.00 46 1021.4
20260503184306 15 278 4.8 9.7 0.00 0.00 0.00 42 1021.3
20260503184208 15 233 4.8 11.3 0.00 0.00 0.00 42 1021.4
20260503184108 15 221 4.8 19.3 0.00 0.00 0.00 42 1021.4
20260503184008 15 233 6.4 19.3 0.00 0.00 0.00 45 1021.5
20260503183906 15 336 4.8 19.3 0.00 0.00 0.00 45 1021.4
20260503183805 15 165 6.4 19.3 0.00 0.00 0.00 43 1021.5
20260503183705 15 163 6.4 19.3 0.00 0.00 0.00 44 1021.4
20260503183605 15 192 6.4 19.3 0.00 0.00 0.00 47 1021.4
20260503183506 14 216 6.4 19.3 0.00 0.00 0.00 46 1021.4
20260503183406 14 238 6.4 19.3 0.00 0.00 0.00 45 1021.4
20260503183305 14 197 8.0 19.3 0.00 0.00 0.00 44 1021.3
20260503183206 14 210 6.4 19.3 0.00 0.00 0.00 44 1021.4
20260503183106 14 203 6.4 17.7 0.00 0.00 0.00 46 1021.4
20260503183005 14 247 6.4 17.7 0.00 0.00 0.00 44 1021.3
20260503182906 14 236 6.4 17.7 0.00 0.00 0.00 45 1021.4
20260503182806 14 179 6.4 17.7 0.00 0.00 0.00 45 1021.3
20260503182706 14 193 6.4 17.7 0.00 0.00 0.00 46 1021.4
20260503182635 14 342 6.4 17.7 0.00 0.00 0.00 45 1021.4
20260503182625 14 284 6.4 17.7 0.00 0.00 0.00 45 1021.4
20260503182408 14 333 4.8 17.7 0.00 0.00 0.00 43 1021.5
20260503182338 14 194 4.8 12.9 0.00 0.00 0.00 42 1021.5
20260503182328 14 229 4.8 17.7 0.00 0.00 0.00 43 1021.5
20260503182105 14 327 4.8 12.9 0.00 0.00 0.00 46 1021.4
20260503182042 14 200 4.8 12.9 0.00 0.00 0.00 44 1021.5
20260503182031 14 249 4.8 12.9 0.00 0.00 0.00 43 1021.5
20260503181755 14 190 4.8 12.9 0.00 0.00 0.00 45 1021.5
20260503181731 14 338 3.2 12.9 0.00 0.00 0.00 46 1021.5
20260503181719 14 225 4.8 12.9 0.00 0.00 0.00 49 1021.4
20260503181454 14 339 4.8 14.5 0.00 0.00 0.00 45 1021.5
20260503181353 14 341 4.8 14.5 0.00 0.00 0.00 49 1021.5
20260503181256 14 190 4.8 14.5 0.00 0.00 0.00 51 1021.5
20260503181154 13 180 4.8 14.5 0.00 0.00 0.00 50 1021.5
20260503181128 13 175 6.4 14.5 0.00 0.00 0.00 44 1021.7
20260503181117 13 175 6.4 14.5 0.00 0.00 0.00 47 1021.7
20260503180854 13 175 6.4 14.5 0.00 0.00 0.00 44 1021.7
20260503180753 13 203 6.4 14.5 0.00 0.00 0.00 47 1021.5
20260503180649 13 192 6.4 14.5 0.00 0.00 0.00 51 1021.5
20260503180548 13 195 6.4 14.5 0.00 0.00 0.00 49 1021.5
20260503180448 13 114 6.4 19.3 0.00 0.00 0.00 45 1021.5
20260503180347 13 177 6.4 19.3 0.00 0.00 0.00 44 1021.5
20260503180247 13 267 6.4 19.3 0.00 0.00 0.00 45 1021.5
20260503180148 13 222 6.4 19.3 0.00 0.00 0.00 45 1021.5
20260503180118 13 212 6.4 19.3 0.00 0.00 0.00 45 1021.5
20260503180105 13 202 6.4 19.3 0.00 0.00 0.00 47 1021.5
20260503175845 13 171 6.4 19.3 0.00 0.00 0.00 46 1021.5
20260503175743 13 227 6.4 19.3 0.00 0.00 0.00 46 1021.7
20260503175642 13 210 6.4 19.3 0.00 0.00 0.00 48 1021.5
20260503175537 13 171 6.4 19.3 0.00 0.00 0.00 50 1021.5
20260503175435 13 242 6.4 17.7 0.00 0.00 0.00 47 1021.5
20260503175337 12 233 6.4 14.5 0.00 0.00 0.00 47 1021.4
20260503175236 13 246 6.4 14.5 0.00 0.00 0.00 45 1021.7
20260503175136 13 211 4.8 14.5 0.00 0.00 0.00 47 1021.5
20260503175032 13 211 4.8 14.5 0.00 0.00 0.00 46 1021.7
20260503174932 13 226 4.8 14.5 0.00 0.00 0.00 48 1021.5
20260503174832 12 244 4.8 14.5 0.00 0.00 0.00 49 1021.7
20260503174732 12 338 6.4 14.5 0.00 0.00 0.00 46 1021.7
20260503174629 12 341 6.4 14.5 0.00 0.00 0.00 48 1021.7
20260503174530 13 282 6.4 14.5 0.00 0.00 0.00 47 1021.8
20260503174429 12 214 6.4 14.5 0.00 0.00 0.00 46 1021.8
20260503174327 12 182 6.4 12.9 0.00 0.00 0.00 47 1021.8
20260503174305 12 229 6.4 12.9 0.00 0.00 0.00 47 1021.8
20260503174251 12 299 6.4 12.9 0.00 0.00 0.00 45 1021.8
20260503174056 13 321 6.4 12.9 0.00 0.00 0.00 49 1021.8
20260503174045 12 208 6.4 12.9 0.00 0.00 0.00 46 1021.8
20260503173830 12 189 4.8 14.5 0.00 0.00 0.00 52 1021.9
20260503173823 13 316 6.4 16.1 0.00 0.00 0.00 46 1021.9
20260503173805 12 157 4.8 14.5 0.00 0.00 0.00 47 1021.8
20260503173643 12 11 6.4 14.5 0.00 0.00 0.00 44 1021.8
20260503173421 13 232 6.4 16.1 0.00 0.00 0.00 46 1021.9
20260503173322 13 276 6.4 16.1 0.00 0.00 0.00 45 1021.8
20260503173222 13 257 6.4 16.1 0.00 0.00 0.00 46 1021.9
20260503173124 13 198 6.4 16.1 0.00 0.00 0.00 48 1021.9
20260503173022 13 198 6.4 16.1 0.00 0.00 0.00 51 1022.0
20260503172954 12 270 4.8 16.1 0.00 0.00 0.00 47 1021.9
20260503172941 13 240 6.4 16.1 0.00 0.00 0.00 46 1022.0
20260503172714 12 241 4.8 16.1 0.00 0.00 0.00 48 1021.9
20260503172615 12 189 4.8 16.1 0.00 0.00 0.00 50 1021.9
20260503172513 12 250 4.8 16.1 0.00 0.00 0.00 47 1021.8
20260503172411 12 294 4.8 16.1 0.00 0.00 0.00 47 1021.8
20260503172309 12 275 4.8 16.1 0.00 0.00 0.00 49 1021.9
20260503172205 12 196 3.2 9.7 0.00 0.00 0.00 51 1021.8
20260503172133 12 98 4.8 9.7 0.00 0.00 0.00 48 1021.8
20260503172125 12 113 4.8 9.7 0.00 0.00 0.00 51 1021.9
20260503171918 12 216 4.8 9.7 0.00 0.00 0.00 46 1021.9
20260503171756 12 205 4.8 11.3 0.00 0.00 0.00 45 1021.9
20260503171728 12 235 4.8 11.3 0.00 0.00 0.00 46 1021.9
20260503171716 12 205 4.8 11.3 0.00 0.00 0.00 45 1021.9
20260503171528 12 173 4.8 11.3 0.00 0.00 0.00 49 1021.9
20260503171518 12 268 4.8 11.3 0.00 0.00 0.00 47 1021.9
20260503171255 12 196 4.8 12.9 0.00 0.00 0.00 46 1021.8
20260503171155 12 193 4.8 12.9 0.00 0.00 0.00 52 1021.9
20260503171054 12 187 6.4 14.5 0.00 0.00 0.00 52 1021.9
20260503170952 12 171 6.4 14.5 0.00 0.00 0.00 48 1021.9
20260503170852 12 173 6.4 14.5 0.00 0.00 0.00 45 1022.0
20260503170754 12 194 4.8 14.5 0.00 0.00 0.00 48 1022.0
20260503170654 12 196 4.8 14.5 0.00 0.00 0.00 46 1022.1
20260503170551 12 217 4.8 14.5 0.00 0.00 0.00 46 1022.1
20260503170526 12 227 4.8 14.5 0.00 0.00 0.00 49 1022.1
20260503170516 12 242 4.8 14.5 0.00 0.00 0.00 48 1022.1
20260503170252 12 198 3.2 14.5 0.00 0.00 0.00 51 1022.1
20260503170152 12 270 3.2 14.5 0.00 0.00 0.00 51 1022.0
20260503160215 11 214 3.2 9.7 0.00 0.00 0.00 61 1022.6
20260503150735 7 217 1.6 4.8 0.00 0.00 0.00 71 1022.8
20260503150635 7 217 1.6 4.8 0.00 0.00 0.00 70 1022.8
20260503150533 7 217 1.6 4.8 0.00 0.00 0.00 70 1022.8
20260503150426 7 217 1.6 4.8 0.00 0.00 0.00 72 1022.8
20260503150326 7 217 1.6 4.8 0.00 0.00 0.00 72 1022.8
20260503150226 7 217 1.6 4.8 0.00 0.00 0.00 72 1022.8
20260503150154 7 217 1.6 6.4 0.00 0.00 0.00 71 1022.8
20260503150145 7 217 1.6 6.4 0.00 0.00 0.00 71 1022.8
20260503140249 8 140 1.6 4.8 0.00 0.00 0.00 77 1022.5
20260503140149 8 139 1.6 6.4 0.00 0.00 0.00 78 1022.5
20260503131341 8 82 3.2 9.7 0.00 0.00 0.00 70 1022.2
20260503131241 8 82 3.2 9.7 0.00 0.00 0.00 70 1022.2
20260503131154 8 84 1.6 9.7 0.00 0.00 0.00 72 1022.2
20260503131143 8 82 1.6 9.7 0.00 0.00 0.00 72 1022.2
20260503131138 8 76 1.6 4.8 0.00 0.00 0.00 72 1022.2
20260503131133 8 76 3.2 6.4 0.00 0.00 0.00 72 1022.2
20260503131126 8 76 3.2 6.4 0.00 0.00 0.00 71 1022.1
20260503131113 8 43 1.6 9.7 0.00 0.00 0.00 71 1022.2
20260503130933 8 76 1.6 4.8 0.00 0.00 0.00 72 1022.2
20260503130512 8 76 3.2 6.4 0.00 0.00 0.00 70 1022.2
20260503130507 8 76 3.2 6.4 0.00 0.00 0.00 69 1022.2
20260503130455 8 76 3.2 6.4 0.00 0.00 0.00 72 1022.2
20260503130129 8 77 3.2 6.4 0.00 0.00 0.00 70 1022.2
20260503120222 6 58 3.2 6.4 0.00 0.00 0.00 73 1021.8
20260503120120 6 58 3.2 6.4 0.00 0.00 0.00 73 1021.8
20260503110122 5 44 3.2 6.4 0.00 0.00 0.00 78 1020.9
20260503100204 5 58 6.4 16.1 0.00 0.00 0.00 78 1020.5
20260503090508 5 11 9.7 20.9 0.00 0.00 0.00 83 1020.3
20260503090407 5 51 9.7 20.9 0.00 0.00 0.00 83 1020.3
20260503090309 5 56 9.7 20.9 0.00 0.00 0.00 83 1020.4
20260503090206 5 34 9.7 20.9 0.00 0.00 0.00 84 1020.3
20260503090106 5 17 9.7 20.9 0.00 0.00 0.00 84 1020.3
20260503081526 5 0 8.0 17.7 0.00 0.00 0.00 90 1020.3
20260503081517 5 46 8.0 17.7 0.00 0.00 0.00 90 1020.4
20260503081256 5 34 8.0 17.7 0.00 0.00 0.00 90 1020.3
20260503081156 5 63 8.0 17.7 0.00 0.00 0.00 90 1020.3
20260503081056 5 53 8.0 16.1 0.00 0.00 0.00 90 1020.3
20260503080957 5 32 8.0 14.5 0.00 0.00 0.00 90 1020.4
20260503080929 5 49 8.0 17.7 0.00 0.00 0.00 90 1020.4
20260503080918 5 36 8.0 14.5 0.00 0.00 0.00 90 1020.3
20260503080656 5 23 8.0 17.7 0.00 0.00 0.00 90 1020.4
20260503080556 5 71 8.0 17.7 0.00 0.00 0.00 90 1020.3
20260503080527 5 55 8.0 17.7 0.00 0.00 0.00 90 1020.3
20260503080514 5 33 8.0 17.7 0.00 0.00 0.00 90 1020.4
20260503080252 5 64 8.0 17.7 0.00 0.00 0.00 90 1020.3
20260503080152 5 54 8.0 17.7 0.00 0.00 0.00 90 1020.3
20260503072837 5 346 8.0 16.1 0.00 0.00 0.00 91 1020.1
20260503072810 5 325 8.0 16.1 0.00 0.00 0.00 91 1020.1
20260503072759 5 38 8.0 16.1 0.00 0.00 0.00 91 1020.1
20260503072537 5 19 8.0 16.1 0.00 0.00 0.00 91 1020.2
20260503072439 5 44 8.0 17.7 0.00 0.00 0.00 91 1020.1
20260503072410 5 350 8.0 17.7 0.00 0.00 0.00 91 1020.1
20260503072359 5 19 8.0 17.7 0.00 0.00 0.00 91 1019.9
20260503072137 5 22 8.0 17.7 0.00 0.00 0.00 91 1019.9
20260503072052 5 355 8.0 17.7 0.00 0.00 0.00 91 1020.1
20260503072047 5 350 8.0 17.7 0.00 0.00 0.00 91 1020.1
20260503072036 5 30 8.0 17.7 0.00 0.00 0.00 91 1019.9
20260503072014 5 59 8.0 17.7 0.00 0.00 0.00 91 1020.1
20260503071630 5 38 8.0 17.7 0.00 0.00 0.00 91 1019.9
20260503071545 5 80 8.0 16.1 0.00 0.00 0.00 91 1019.9
20260503071534 5 314 8.0 17.7 0.00 0.00 0.00 91 1020.1
20260503071526 5 312 6.4 16.1 0.00 0.00 0.00 91 1020.1
20260503071508 5 31 6.4 16.1 0.00 0.00 0.00 91 1020.1
20260503071123 5 0 6.4 16.1 0.00 0.00 0.00 91 1019.9
20260503071025 5 344 6.4 16.1 0.00 0.00 0.00 91 1019.9
20260503070924 5 355 6.4 16.1 0.00 0.00 0.00 91 1019.9
20260503070824 5 5 6.4 16.1 0.00 0.00 0.00 91 1019.9
20260503070720 5 36 6.4 16.1 0.00 0.00 0.00 91 1019.8
20260503070618 5 30 6.4 16.1 0.00 0.00 0.00 91 1019.8
20260503070519 5 10 6.4 16.1 0.00 0.00 0.00 91 1019.9
20260503070417 5 345 6.4 16.1 0.00 0.00 0.00 91 1019.8
20260503070318 5 327 6.4 16.1 0.00 0.00 0.00 91 1019.8
20260503070247 5 355 6.4 16.1 0.00 0.00 0.00 90 1019.9
20260503070236 5 32 6.4 16.1 0.00 0.00 0.00 91 1019.9
20260503055101 5 0 4.8 14.5 0.00 0.00 0.00 86 1019.8
20260503055054 5 9 6.4 14.5 0.00 0.00 0.00 86 1019.8
20260503055035 5 34 6.4 14.5 0.00 0.00 0.00 86 1019.7
20260503054912 5 16 6.4 14.5 0.00 0.00 0.00 86 1019.7
20260503054652 5 17 6.4 14.5 0.00 0.00 0.00 86 1019.8
20260503054551 5 11 6.4 12.9 0.00 0.00 0.00 86 1019.8
20260503054451 5 11 6.4 12.9 0.00 0.00 0.00 86 1019.9
20260503054413 5 17 6.4 12.9 0.00 0.00 0.00 86 1019.9
20260503054407 5 14 6.4 12.9 0.00 0.00 0.00 86 1019.8
20260503054355 5 338 6.4 12.9 0.00 0.00 0.00 86 1019.8
20260503054332 5 50 6.4 12.9 0.00 0.00 0.00 86 1019.9
20260503053951 5 28 6.4 12.9 0.00 0.00 0.00 87 1019.7
20260503053853 5 34 6.4 12.9 0.00 0.00 0.00 86 1019.8
20260503053749 5 5 6.4 12.9 0.00 0.00 0.00 87 1019.8
20260503053647 5 31 6.4 12.9 0.00 0.00 0.00 87 1019.8
20260503053548 5 17 6.4 12.9 0.00 0.00 0.00 87 1019.8
20260503053447 5 46 6.4 12.9 0.00 0.00 0.00 87 1019.8
20260503053349 5 51 6.4 14.5 0.00 0.00 0.00 87 1019.7
20260503053248 5 31 6.4 14.5 0.00 0.00 0.00 87 1019.7
20260503053216 5 5 6.4 14.5 0.00 0.00 0.00 87 1019.7
20260503053205 5 23 6.4 14.5 0.00 0.00 0.00 88 1019.8
20260503052942 5 27 6.4 14.5 0.00 0.00 0.00 88 1019.7
20260503052841 5 30 6.4 14.5 0.00 0.00 0.00 88 1019.7
20260503052742 5 18 6.4 14.5 0.00 0.00 0.00 88 1019.7
20260503052641 5 55 8.0 14.5 0.00 0.00 0.00 89 1019.7
20260503052616 5 28 6.4 14.5 0.00 0.00 0.00 89 1019.7
20260503052604 5 65 6.4 14.5 0.00 0.00 0.00 89 1019.7
20260503052340 5 36 6.4 14.5 0.00 0.00 0.00 89 1019.7
20260503052240 5 13 6.4 14.5 0.00 0.00 0.00 89 1019.7
20260503052140 5 27 6.4 14.5 0.00 0.00 0.00 89 1019.7
20260503052112 5 18 6.4 12.9 0.00 0.00 0.00 89 1019.7
20260503052102 5 46 6.4 12.9 0.00 0.00 0.00 89 1019.7
20260503051841 5 36 4.8 12.9 0.00 0.00 0.00 89 1019.7
20260503051739 5 42 4.8 12.9 0.00 0.00 0.00 89 1019.8
20260503051641 5 25 4.8 12.9 0.00 0.00 0.00 89 1019.7
20260503051605 5 34 4.8 11.3 0.00 0.00 0.00 90 1019.7
20260503051556 5 28 4.8 11.3 0.00 0.00 0.00 89 1019.7
20260503051333 5 30 4.8 11.3 0.00 0.00 0.00 90 1019.8
20260503051234 5 30 4.8 11.3 0.00 0.00 0.00 90 1019.7
20260503051134 5 34 4.8 11.3 0.00 0.00 0.00 90 1019.7
20260503051103 5 339 6.4 17.7 0.00 0.00 0.00 89 1019.8
20260503051052 5 11 6.4 11.3 0.00 0.00 0.00 89 1019.8
20260503050900 5 5 6.4 17.7 0.00 0.00 0.00 89 1019.8
20260503050849 5 25 6.4 17.7 0.00 0.00 0.00 89 1019.7
20260503050628 5 28 6.4 17.7 0.00 0.00 0.00 89 1019.7
20260503050528 5 17 6.4 17.7 0.00 0.00 0.00 89 1019.7
20260503050421 5 57 6.4 17.7 0.00 0.00 0.00 89 1019.7
20260503050322 5 19 6.4 17.7 0.00 0.00 0.00 89 1019.7
20260503050219 5 343 6.4 17.7 0.00 0.00 0.00 89 1019.7
20260503050121 5 338 6.4 17.7 0.00 0.00 0.00 88 1019.7
20260503050021 5 15 6.4 17.7 0.00 0.00 0.00 88 1019.7
20260503045921 5 22 4.8 12.9 0.00 0.00 0.00 88 1019.7
20260503045820 5 48 4.8 12.9 0.00 0.00 0.00 88 1019.6
20260503045720 5 34 4.8 12.9 0.00 0.00 0.00 87 1019.6
20260503045618 5 19 4.8 12.9 0.00 0.00 0.00 87 1019.6
20260503045547 5 61 6.4 12.9 0.00 0.00 0.00 87 1019.6
20260503045538 5 26 6.4 12.9 0.00 0.00 0.00 87 1019.6
20260503045316 5 51 6.4 12.9 0.00 0.00 0.00 86 1019.6
20260503045217 5 43 6.4 12.9 0.00 0.00 0.00 86 1019.5
20260503045116 5 38 6.4 12.9 0.00 0.00 0.00 86 1019.6
20260503045016 5 32 6.4 12.9 0.00 0.00 0.00 85 1019.5
20260503044916 5 17 6.4 12.9 0.00 0.00 0.00 85 1019.5
20260503044816 5 41 6.4 12.9 0.00 0.00 0.00 85 1019.5
20260503044712 5 5 6.4 12.9 0.00 0.00 0.00 84 1019.5
20260503044614 5 37 6.4 12.9 0.00 0.00 0.00 84 1019.5
20260503044514 5 21 6.4 12.9 0.00 0.00 0.00 84 1019.5
20260503044446 5 22 6.4 12.9 0.00 0.00 0.00 83 1019.5
20260503044435 5 67 6.4 12.9 0.00 0.00 0.00 83 1019.5
20260503044248 5 88 6.4 12.9 0.00 0.00 0.00 82 1019.5
20260503044236 5 33 6.4 12.9 0.00 0.00 0.00 83 1019.5
20260503044013 5 24 6.4 12.9 0.00 0.00 0.00 82 1019.5
20260503043912 6 54 6.4 12.9 0.00 0.00 0.00 82 1019.4
20260503043813 6 58 6.4 12.9 0.00 0.00 0.00 82 1019.4
20260503043746 6 36 6.4 14.5 0.00 0.00 0.00 82 1019.4
20260503043734 6 52 6.4 12.9 0.00 0.00 0.00 82 1019.5
20260503043513 5 53 6.4 14.5 0.00 0.00 0.00 82 1019.4
20260503043413 6 44 6.4 14.5 0.00 0.00 0.00 82 1019.4
20260503043314 6 56 6.4 16.1 0.00 0.00 0.00 81 1019.4
20260503043213 6 47 6.4 17.7 0.00 0.00 0.00 81 1019.4
20260503043112 6 24 6.4 17.7 0.00 0.00 0.00 81 1019.4
20260503043011 6 46 6.4 17.7 0.00 0.00 0.00 81 1019.4
20260503042906 6 72 6.4 17.7 0.00 0.00 0.00 81 1019.5
20260503042807 6 59 6.4 17.7 0.00 0.00 0.00 81 1019.4
20260503042706 6 32 6.4 17.7 0.00 0.00 0.00 81 1019.4
20260503042607 6 33 6.4 17.7 0.00 0.00 0.00 81 1019.4
20260503042504 6 65 6.4 17.7 0.00 0.00 0.00 80 1019.3
20260503042359 6 74 6.4 17.7 0.00 0.00 0.00 81 1019.4
20260503042301 6 55 6.4 17.7 0.00 0.00 0.00 81 1019.4
20260503042201 6 13 6.4 17.7 0.00 0.00 0.00 81 1019.3
20260503042102 6 64 6.4 17.7 0.00 0.00 0.00 80 1019.4
20260503041956 6 58 6.4 17.7 0.00 0.00 0.00 80 1019.4
20260503041931 6 52 6.4 17.7 0.00 0.00 0.00 80 1019.4
20260503041921 6 51 6.4 17.7 0.00 0.00 0.00 80 1019.4
20260503041655 6 65 6.4 17.7 0.00 0.00 0.00 80 1019.4
20260503041555 6 72 6.4 16.1 0.00 0.00 0.00 80 1019.4
20260503041454 6 20 8.0 16.1 0.00 0.00 0.00 80 1019.4
20260503041357 6 80 8.0 19.3 0.00 0.00 0.00 80 1019.4
20260503041254 6 42 8.0 19.3 0.00 0.00 0.00 80 1019.3
20260503041227 6 59 8.0 19.3 0.00 0.00 0.00 80 1019.3
20260503041217 6 59 8.0 19.3 0.00 0.00 0.00 80 1019.3
20260503040956 6 55 8.0 19.3 0.00 0.00 0.00 80 1019.4
20260503040925 6 34 8.0 19.3 0.00 0.00 0.00 80 1019.4
20260503040914 6 5 8.0 19.3 0.00 0.00 0.00 80 1019.4
20260503040722 6 66 8.0 19.3 0.00 0.00 0.00 80 1019.4
20260503040712 6 56 8.0 19.3 0.00 0.00 0.00 80 1019.4
20260503040449 6 77 8.0 19.3 0.00 0.00 0.00 81 1019.3
20260503040350 6 49 8.0 17.7 0.00 0.00 0.00 81 1019.4
20260503040239 6 31 8.0 17.7 0.00 0.00 0.00 82 1019.4
20260503040201 6 41 8.0 16.1 0.00 0.00 0.00 82 1019.4
20260503040155 6 49 8.0 16.1 0.00 0.00 0.00 82 1019.4
20260503040144 6 17 8.0 14.5 0.00 0.00 0.00 82 1019.4
20260503040118 6 42 8.0 14.5 0.00 0.00 0.00 82 1019.4
20260503035734 5 15 8.0 16.1 0.00 0.00 0.00 82 1019.3
20260503035707 5 14 8.0 20.9 0.00 0.00 0.00 83 1019.3
20260503035657 5 53 8.0 16.1 0.00 0.00 0.00 82 1019.3
20260503035435 5 63 8.0 20.9 0.00 0.00 0.00 83 1019.3
20260503035333 5 17 8.0 20.9 0.00 0.00 0.00 84 1019.3
20260503035227 5 81 6.4 20.9 0.00 0.00 0.00 84 1019.2
20260503035126 5 55 8.0 20.9 0.00 0.00 0.00 84 1019.3
20260503035026 5 57 8.0 20.9 0.00 0.00 0.00 84 1019.2
20260503034927 5 47 8.0 20.9 0.00 0.00 0.00 84 1019.2
20260503034827 5 48 8.0 20.9 0.00 0.00 0.00 84 1019.2
20260503034747 5 34 8.0 20.9 0.00 0.00 0.00 85 1019.2
20260503034734 5 39 8.0 20.9 0.00 0.00 0.00 85 1019.2
20260503034513 5 42 8.0 19.3 0.00 0.00 0.00 85 1019.3
20260503034414 5 23 8.0 19.3 0.00 0.00 0.00 85 1019.2
20260503034313 5 69 8.0 19.3 0.00 0.00 0.00 86 1019.2
20260503034208 5 44 8.0 19.3 0.00 0.00 0.00 86 1019.2
20260503034108 5 49 8.0 17.7 0.00 0.00 0.00 87 1019.3
20260503034007 5 68 6.4 17.7 0.00 0.00 0.00 87 1019.4
20260503033908 5 60 8.0 17.7 0.00 0.00 0.00 87 1019.4
20260503033837 5 57 6.4 14.5 0.00 0.00 0.00 88 1019.3
20260503033825 5 35 6.4 14.5 0.00 0.00 0.00 88 1019.3
20260503033601 5 63 6.4 14.5 0.00 0.00 0.00 89 1019.3
20260503033501 5 16 6.4 14.5 0.00 0.00 0.00 89 1019.3
20260503033401 5 44 6.4 14.5 0.00 0.00 0.00 89 1019.4
20260503033300 5 61 6.4 14.5 0.00 0.00 0.00 90 1019.3
20260503033152 5 88 6.4 14.5 0.00 0.00 0.00 90 1019.4
20260503033051 5 54 6.4 14.5 0.00 0.00 0.00 90 1019.4
20260503032951 5 54 6.4 14.5 0.00 0.00 0.00 90 1019.4
20260503032854 5 44 6.4 14.5 0.00 0.00 0.00 90 1019.4